TimeCET,TemperatureF,Dew PointF,Humidity,Sea Level PressureIn,VisibilityMPH,Wind Direction,Wind SpeedMPH,Gust SpeedMPH,PrecipitationIn,Events,Conditions,WindDirDegrees,DateUTC
12:25 AM,37.4,35.6,93,29.71,3.1,ESE,16.1,-,N/A,Rain,Light Rain,120,2012-12-20 23:25:00
12:55 AM,37.4,35.6,93,29.71,2.5,ESE,16.1,-,N/A,Rain,Rain,110,2012-12-20 23:55:00
1:00 AM,37,35,92,29.72,3,ESE,17.9,,,Rain,Light Rain,110,2012-12-21 00:00:00
1:25 AM,37.4,35.6,93,29.71,2.5,ESE,16.1,-,N/A,Rain,Light Drizzle,110,2012-12-21 00:25:00
1:55 AM,37.4,35.6,93,29.71,1.7,ESE,13.8,-,N/A,Rain-Snow,Light Rain,120,2012-12-21 00:55:00
2:25 AM,37.4,35.6,93,29.71,1.8,ESE,13.8,-,N/A,Rain,Light Rain,120,2012-12-21 01:25:00
2:55 AM,37.4,35.6,93,29.71,2.5,ESE,12.7,-,N/A,,Light Drizzle,120,2012-12-21 01:55:00
3:25 AM,37.4,35.6,93,29.71,1.6,ESE,12.7,-,N/A,,Drizzle,120,2012-12-21 02:25:00
3:55 AM,37.4,35.6,93,29.71,-9999.0,ESE,12.7,-,N/A,,Light Drizzle,120,2012-12-21 02:55:00
4:00 AM,37,36,95,29.72,2,ESE,11.2,,,Rain,Rain,120,2012-12-21 03:00:00
4:25 AM,37.4,35.6,93,29.71,-9999.0,ESE,10.4,-,N/A,,Light Drizzle,120,2012-12-21 03:25:00
4:55 AM,37.4,35.6,93,29.71,1.6,ESE,10.4,-,N/A,,Light Drizzle,120,2012-12-21 03:55:00
5:25 AM,37.4,37.4,100,29.71,2.2,SE,6.9,-,N/A,,Light Drizzle,130,2012-12-21 04:25:00
5:55 AM,37.4,37.4,100,29.71,3.1,ESE,10.4,-,N/A,,Overcast,120,2012-12-21 04:55:00
6:25 AM,37.4,37.4,100,29.71,3.1,ESE,9.2,-,N/A,,Overcast,120,2012-12-21 05:25:00
6:55 AM,37.4,37.4,100,29.71,3.1,ESE,8.1,-,N/A,,Overcast,120,2012-12-21 05:55:00
7:00 AM,38,37,93,29.73,3,ESE,8.9,,,,Mist,120,2012-12-21 06:00:00
7:25 AM,37.4,37.4,100,29.71,-9999.0,ESE,10.4,-,N/A,,Light Drizzle,120,2012-12-21 06:25:00
7:55 AM,37.4,37.4,100,29.71,1.6,ESE,9.2,-,N/A,,Light Drizzle,120,2012-12-21 06:55:00
8:25 AM,37.4,37.4,100,29.74,1.1,ESE,8.1,-,N/A,,Overcast,120,2012-12-21 07:25:00
8:55 AM,37.4,37.4,100,29.74,0.7,ESE,5.8,-,N/A,Fog,Patches of Fog,120,2012-12-21 07:55:00
9:25 AM,37.4,37.4,100,29.74,0.4,ESE,5.8,-,N/A,Fog,Fog,120,2012-12-21 08:25:00
9:55 AM,39.2,39.2,100,29.77,0.2,ESE,6.9,-,N/A,Fog,Fog,120,2012-12-21 08:55:00
10:00 AM,39,39,98,29.78,0,ESE,6.7,,,Fog,Fog,120,2012-12-21 09:00:00
10:25 AM,39.2,39.2,100,29.77,0.2,ESE,5.8,-,N/A,Fog-Rain,Light Fog,110,2012-12-21 09:25:00
10:55 AM,39.2,39.2,100,29.77,0.2,ESE,8.1,-,N/A,Fog,Fog,110,2012-12-21 09:55:00
11:25 AM,39.2,39.2,100,29.80,0.2,ESE,6.9,-,N/A,Fog,Fog,110,2012-12-21 10:25:00
11:55 AM,41.0,41.0,100,29.80,0.1,ESE,4.6,-,N/A,Fog,Fog,120,2012-12-21 10:55:00
12:25 PM,41.0,41.0,100,29.80,0.1,ESE,5.8,-,N/A,Fog,Fog,120,2012-12-21 11:25:00
12:55 PM,41.0,41.0,100,29.80,0.2,SE,6.9,-,N/A,Fog,Fog,140,2012-12-21 11:55:00
1:00 PM,41,41,100,29.82,0,SE,6.7,,,Fog,Fog,140,2012-12-21 12:00:00
1:25 PM,41.0,41.0,100,29.80,0.2,ESE,5.8,-,N/A,Fog,Fog,120,2012-12-21 12:25:00
1:55 PM,42.8,42.8,100,29.80,0.1,ESE,5.8,-,N/A,Fog,Fog,120,2012-12-21 12:55:00
2:25 PM,42.8,42.8,100,29.83,0.2,SSE,4.6,-,N/A,Fog-Rain,Light Fog,150,2012-12-21 13:25:00
2:55 PM,44.6,44.6,100,29.83,-9999.0,SSE,5.8,-,N/A,Fog,Fog,150,2012-12-21 13:55:00
3:25 PM,44.6,44.6,100,29.83,0.2,SE,4.6,-,N/A,Fog,Fog,130,2012-12-21 14:25:00
3:55 PM,44.6,44.6,100,29.83,0.8,SE,4.6,-,N/A,,Mostly Cloudy,130,2012-12-21 14:55:00
4:00 PM,44,44,98,29.85,0,SE,4.5,,,Fog,Fog,130,2012-12-21 15:00:00
4:25 PM,42.8,42.8,100,29.83,0.7,SE,5.8,-,N/A,,Mostly Cloudy,130,2012-12-21 15:25:00
4:55 PM,42.8,42.8,100,29.86,0.7,ESE,4.6,-,N/A,,Mostly Cloudy,120,2012-12-21 15:55:00
5:25 PM,44.6,44.6,100,29.86,1.0,SSE,8.1,-,N/A,,Overcast,150,2012-12-21 16:25:00
5:55 PM,44.6,44.6,100,29.86,1.9,SE,5.8,-,N/A,,Scattered Clouds,140,2012-12-21 16:55:00
6:25 PM,44.6,44.6,100,29.86,1.6,SSE,4.6,-,N/A,,Mostly Cloudy,150,2012-12-21 17:25:00
6:55 PM,44.6,44.6,100,29.89,1.2,SSE,5.8,-,N/A,Rain,Mostly Cloudy,160,2012-12-21 17:55:00
7:00 PM,44,44,100,29.89,1,SSE,4.5,,,,Mist,160,2012-12-21 18:00:00
7:25 PM,44.6,44.6,100,29.89,1.4,SSE,5.8,-,N/A,Rain,Mostly Cloudy,160,2012-12-21 18:25:00
7:55 PM,44.6,44.6,100,29.89,1.4,South,5.8,-,N/A,Rain,Mostly Cloudy,190,2012-12-21 18:55:00
8:25 PM,44.6,44.6,100,29.89,2.2,SSW,5.8,-,N/A,,Mostly Cloudy,200,2012-12-21 19:25:00
8:55 PM,44.6,44.6,100,29.89,2.8,South,6.9,-,N/A,,Scattered Clouds,190,2012-12-21 19:55:00
9:25 PM,44.6,44.6,100,29.89,3.1,South,8.1,-,N/A,,Mostly Cloudy,190,2012-12-21 20:25:00
9:55 PM,46.4,44.6,93,29.89,3.7,SSW,10.4,-,N/A,,Scattered Clouds,200,2012-12-21 20:55:00
10:00 PM,45,44,97,29.92,5,SSW,8.9,,,,Mist,200,2012-12-21 21:00:00
10:25 PM,44.6,44.6,100,29.92,-9999.0,SSW,9.2,-,N/A,Rain,Rain,210,2012-12-21 21:25:00
10:55 PM,44.6,44.6,100,29.92,4.3,WSW,9.2,-,N/A,Rain,Light Rain,240,2012-12-21 21:55:00
11:25 PM,44.6,44.6,100,29.92,6.2,SSW,6.9,-,N/A,,Mostly Cloudy,210,2012-12-21 22:25:00
11:55 PM,44.6,44.6,100,29.92,1.7,SW,11.5,-,N/A,Rain,Light Drizzle,220,2012-12-21 22:55:00